Theta_e
293 293 293 293 293 293 293 294 294 287 286 290 291 293 293 293 293 294 293 295 297 298 299 299 299 299 300 301 302 303 305 305 305 306 307 308 309 310
290 289 289 289 289 289 289 289 289 289 285 288 288 289 289 290 291 291 292 293 294 295 296 296 296 296 297 298 299 300 301 302 302 303 304 304 305 306
287 287 287 287 286 286 287 287 286 287 284 285 286 288 287 288 289 290 290 290 291 293 294 294 294 294 295 295 296 297 297 298 298 298 299 300 301 302
285 285 285 287 285 285 285 285 285 286 284 282 284 285 286 287 287 286 288 290 287 289 291 292 292 293 294 293 293 293 294 294 294 294 295 296 297 298
284 283 283 283 283 283 284 283 284 285 285 283 283 285 285 286 286 285 285 284 287 289 290 291 291 291 291 291 292 291 291 291 292 292 292 293 294 295
283 283 283 282 282 282 282 282 284 284 284 283 283 283 284 285 285 283 282 284 283 286 287 288 288 288 289 290 290 289 290 290 290 290 290 290 291 292
282 282 283 282 286 285 284 284 284 283 283 282 282 283 283 282 281 283 282 282 283 282 282 283 283 283 284 286 286 288 288 288 289 289 290 290 291 291
281 281 282 281 284 286 286 287 286 284 283 283 282 281 282 282 283 283 282 281 278 281 281 281 282 281 283 283 287 287 288 288 290 291 292 293 293 293
281 282 282 283 282 283 285 286 285 287 287 284 282 282 282 283 283 282 281 279 278 281 280 279 281 280 282 282 286 287 288 288 290 292 291 291 291 291
282 282 282 281 282 284 284 284 284 284 284 284 284 284 285 285 284 283 281 279 280 282 279 277 278 278 280 279 284 285 286 287 288 290 291 291 290 289
282 282 283 282 284 286 284 283 283 283 286 287 288 288 287 287 285 282 279 277 276 277 278 277 275 276 275 275 277 283 283 285 286 287 289 289 288 286
281 282 283 281 285 286 283 282 280 282 283 284 284 284 285 284 285 283 281 277 277 269 277 274 273 276 272 272 274 277 276 281 282 283 285 287 285 280
277 278 280 285 285 286 286 277 279 285 284 282 282 280 279 281 282 282 282 280 275 272 278 276 271 273 269 271 272 273 276 276 276 277 280 283 285 283
275 278 278 284 286 286 283 285 285 284 282 281 272 277 276 276 278 280 278 279 278 277 276 276 272 274 269 268 270 274 275 275 275 274 275 278 279 281
279 280 284 285 285 284 284 284 278 274 279 277 278 278 275 277 278 273 272 272 274 276 277 275 274 274 272 270 270 271 272 273 274 273 273 273 273 274
280 277 280 283 283 282 275 277 275 273 275 278 278 278 272 270 273 273 273 271 269 271 274 274 274 274 272 272 270 267 271 268 271 272 272 272 273 273
269 265 268 270 269 269 268 269 271 271 273 276 276 275 273 271 272 273 271 270 270 271 271 273 275 274 273 272 264 267 268 269 270 271 270 269 270 271
262 260 262 264 265 266 265 267 268 268 270 272 273 273 272 272 272 273 274 269 269 271 270 271 269 267 267 268 273 267 266 268 269 269 269 263 266 269
257 256 258 260 261 263 263 263 265 266 266 268 270 270 270 270 270 271 272 272 269 270 270 268 265 264 260 260 264 274 267 267 266 265 266 265 265 269
253 254 254 255 257 258 259 260 262 262 263 264 265 265 267 267 267 268 270 270 268 267 267 265 265 264 263 261 259 266 272 265 262 262 263 262 265 270
251 251 252 252 254 254 255 255 256 258 259 260 260 260 262 263 265 267 268 268 267 267 266 265 266 268 265 261 258 258 262 270 268 261 258 257 257 259
250 252 252 250 250 251 252 251 252 252 253 254 255 257 259 262 264 265 265 265 266 266 266 267 266 265 264 264 260 258 259 260 263 268 269 266 257 255
253 251 251 250 250 250 248 249 249 253 251 252 253 254 257 259 262 264 264 264 264 263 264 264 264 264 262 262 259 259 256 255 257 258 260 267 269 269
Wind_Speed
5 6 4 3 4 4 4 4 4 4 3 3 4 8 8 9 11 10 12 18 25 26 27 28 29 30 30 30 30 30 31 31 31 31 31 31 32 31
4 6 5 3 4 3 3 3 3 3 4 3 4 6 7 8 13 14 14 17 22 22 24 25 28 31 30 30 29 29 29 28 28 30 30 31 32 31
5 6 6 5 4 4 4 3 3 3 5 6 7 9 11 11 11 12 11 11 10 19 24 29 28 28 28 27 27 28 29 29 29 29 30 31 32 32
5 5 5 4 5 4 3 3 2 3 5 11 11 9 13 12 11 11 8 8 8 17 26 26 25 26 26 30 32 29 28 28 29 28 29 30 31 31
5 5 5 5 4 3 3 4 3 5 7 7 11 9 10 10 12 8 9 8 9 19 21 19 22 27 29 29 28 27 28 28 28 29 31 31 32 32
5 5 4 4 4 4 3 4 4 6 7 8 9 10 11 10 10 13 13 9 11 10 9 11 22 24 25 25 25 25 25 27 28 29 31 32 33 33
5 4 4 4 7 8 4 5 5 6 5 7 7 8 9 11 12 9 11 13 11 5 6 11 9 9 10 16 16 23 25 28 29 31 32 32 31 30
4 4 4 4 5 8 9 10 9 6 7 5 7 9 10 10 9 11 10 11 12 3 14 12 7 10 9 8 21 24 28 27 28 29 34 27 23 19
4 3 3 2 2 2 6 9 7 11 12 9 9 8 11 10 10 12 11 12 12 12 11 13 8 8 9 7 18 25 25 25 31 26 26 27 21 21
4 2 3 5 5 5 5 5 5 7 6 4 6 9 8 9 9 5 9 10 9 8 4 7 6 8 8 4 17 25 24 25 28 30 25 24 25 23
3 1 2 2 7 10 6 9 8 7 6 12 14 15 18 19 15 6 7 8 10 9 3 5 4 7 2 3 5 22 21 24 25 30 28 25 23 23
2 3 4 4 8 9 6 5 6 7 5 5 4 8 10 9 15 6 6 7 7 4 1 7 3 5 6 2 3 8 9 21 22 24 27 29 25 10
1 2 3 10 10 9 11 1 5 11 9 5 6 4 4 6 4 4 4 6 4 4 5 3 3 3 2 5 3 3 8 10 9 12 20 24 28 21
4 3 4 11 12 12 8 11 15 15 6 6 2 5 4 4 4 4 4 5 4 6 4 3 3 2 2 3 3 4 5 7 8 9 9 15 21 24
3 6 10 10 11 9 11 10 8 3 6 6 9 8 4 4 6 3 4 3 5 4 2 2 3 4 1 2 3 3 5 4 7 7 8 9 9 8
7 6 7 8 6 7 3 6 3 2 4 8 9 6 3 2 5 2 3 2 1 3 3 2 1 2 2 1 1 3 4 3 5 5 5 6 7 8
1 2 3 3 2 2 2 3 3 3 4 6 6 7 5 3 5 2 2 2 2 2 2 2 2 2 1 2 0 2 2 2 4 4 4 4 6 7
4 2 1 1 2 2 2 2 2 3 3 6 7 6 7 6 7 6 4 3 3 2 2 1 2 2 3 3 5 2 2 2 2 4 2 2 3 5
2 1 1 1 2 2 2 2 3 3 3 4 6 6 6 6 7 6 6 3 2 2 2 1 1 1 1 3 2 9 1 2 2 2 3 3 1 3
2 2 3 3 2 2 2 2 3 3 3 3 5 4 5 5 5 6 5 5 3 1 2 1 2 2 3 3 2 1 8 1 1 1 2 2 2 6
2 2 3 3 3 2 2 3 3 3 3 4 3 4 3 2 4 4 4 5 4 2 3 2 1 2 0 2 3 3 2 7 3 3 1 2 1 3
3 4 4 3 3 4 3 2 3 3 3 3 3 3 3 2 4 4 3 4 3 3 3 3 1 1 2 3 2 2 2 3 5 5 1 3 4 1
4 4 4 3 3 3 3 3 3 4 3 3 3 3 2 3 3 4 4 3 3 4 2 2 1 1 1 1 1 1 1 2 2 3 2 6 6 5
Wind_Direction
71 67 74 47 38 28 29 22 344 325 320 350 14 22 359 344 330 344 332 330 330 331 332 330 327 322 318 315 314 314 313 312 309 306 304 302 300 298
72 75 62 50 50 37 33 26 36 346 288 7 354 338 333 331 333 334 331 325 331 328 324 323 322 319 317 316 315 315 314 313 312 310 311 307 305 302
60 70 61 49 44 32 32 24 17 4 303 313 322 325 332 327 330 334 329 323 327 325 328 326 326 320 319 318 318 320 315 314 314 311 308 304 302 299
71 71 58 44 47 38 29 21 6 332 326 321 326 333 332 329 322 323 324 329 334 324 324 325 324 323 324 325 317 317 319 315 314 312 309 305 303 299
78 71 59 56 48 22 17 10 353 349 337 325 322 324 326 326 328 326 329 319 319 317 320 326 328 324 321 322 320 324 325 319 319 318 313 308 305 301
77 78 80 81 65 32 31 4 352 339 333 330 328 322 328 331 327 328 330 328 322 313 315 325 324 320 320 321 321 320 322 327 322 318 312 306 301 297
82 78 69 64 40 30 9 352 343 331 324 326 315 318 329 334 335 328 316 319 323 325 333 324 323 314 312 319 318 330 335 331 325 321 314 306 302 299
96 77 74 70 37 13 2 349 339 327 315 311 315 319 323 321 322 322 319 331 327 360 330 318 321 315 316 326 335 343 338 339 332 322 328 307 307 329
93 88 59 28 9 308 325 343 314 314 316 315 314 315 313 320 320 321 333 324 315 316 311 311 321 312 319 333 344 350 351 352 357 356 5 28 19 7
107 78 41 10 336 337 334 326 319 316 282 279 277 288 286 307 312 317 317 298 292 303 321 296 326 314 317 330 356 359 1 5 8 5 11 22 27 17
132 95 59 323 307 334 329 323 317 319 291 305 303 307 308 316 316 315 305 312 313 323 18 330 317 312 307 321 347 2 5 8 12 12 20 22 25 22
223 194 222 242 307 326 315 292 291 312 296 291 288 298 293 289 301 281 279 294 307 322 331 343 323 340 320 318 328 2 355 4 10 17 18 29 34 20
248 269 254 275 294 313 326 335 297 307 312 290 291 285 282 278 282 268 258 277 281 237 316 342 305 305 256 305 318 344 2 356 2 10 14 19 33 41
235 241 254 288 287 301 315 316 322 326 309 293 300 292 274 273 271 285 269 275 235 243 295 296 269 309 302 309 321 336 334 6 4 7 7 14 25 28
228 256 284 303 311 314 307 317 333 308 305 298 296 289 245 273 293 295 281 275 262 240 224 263 264 282 297 274 293 328 340 352 2 5 10 19 18 13
284 276 270 289 321 327 4 325 285 263 284 301 300 291 284 314 293 252 271 274 281 298 223 225 318 341 298 252 319 299 332 347 339 0 11 25 25 29
353 8 13 23 345 303 302 298 297 311 312 313 306 304 297 286 292 273 245 267 227 267 271 244 240 272 292 269 332 284 306 322 341 353 11 29 20 14
50 72 311 317 298 300 324 299 308 308 310 321 312 306 304 300 300 295 267 216 242 248 251 287 315 349 354 320 81 288 310 305 336 356 4 64 7 1
111 209 220 283 293 290 287 283 306 291 303 298 308 308 306 304 307 298 292 267 253 240 248 258 295 123 113 245 289 44 15 317 343 1 18 40 84 356
123 177 227 241 262 266 279 278 296 308 302 298 307 294 302 298 307 300 304 298 279 264 270 256 219 195 179 214 248 283 5 47 64 331 340 338 316 11
217 231 219 238 255 270 272 277 266 268 284 293 286 279 278 287 296 299 309 314 313 290 281 263 224 313 206 59 8 301 300 8 92 153 196 77 0 348
221 229 244 234 230 231 246 255 285 283 279 280 283 286 291 304 302 307 306 311 306 296 282 299 298 272 204 216 236 247 285 331 339 346 287 175 160 193
223 223 237 235 232 246 241 242 239 268 259 265 271 284 301 303 286 291 291 285 297 301 294 284 271 274 247 256 218 251 293 311 342 340 314 10 346 352